Regional Weather Roundup
Issued by NWS

Home | Current Version | Previous Version | Text Only | Print | Product List | Glossary On
Versions: 1 2 3 4 5 6 7 8 9 10 11 12 13 14 15 16 17 18 19 20 21 22 23 24 25 26
354
ASUS42 KFFC 221303
RWRGA
WEATHER ROUNDUP FOR GEORGIA
NATIONAL WEATHER SERVICE PEACHTREE CITY GA
900 AM EDT FRI MAY 22 2015

NOTE: "FAIR" INDICATES FEW OR NO CLOUDS BELOW 12,000 FEET WITH NO
SIGNIFICANT WEATHER AND/OR OBSTRUCTIONS TO VISIBILITY.

* = USE WITH CAUTION. THE STATIONS MARKED WITH AN ASTERISK MAY NOT
REPORT WEATHER SUCH AS PRECIPITATION, FOG, OR THUNDER AND ARE NOT
QUALITY CONTROLLED BY NWS.

THE REMARK "TC" DENOTES TEMPERATURE READING IN DEGREES CELSIUS.

GAZ001>058-221400-
NORTH GEORGIA

CITY           SKY/WX    TMP DP  RH WIND       PRES   REMARKS
ATLANTA        MOSUNNY   58  46  64 N8        30.19R
ATHENS         MOSUNNY   63  46  54 NE13      30.18R HAZE
CHAMBLEE       SUNNY     58  47  66 N5        30.19R
PEACHTREE CITY PTSUNNY   58  47  66 N7        30.20R
ROME           SUNNY     57  47  69 N9        30.22R
WEST ATLANTA   MOSUNNY   58  48  69 N5        30.20R
GAINESVILLE    SUNNY     59  44  57 VRB6      30.20R
CARTERSVILLE   SUNNY     56  46  69 N9        30.22R


CITY           SKY/WX    TMP DP  RH WIND       PRES   REMARKS
DALTON*        SUNNY     54  48  82 N9        30.23R
LAWRENCEVILLE* SUNNY     61  45  55 NE8       30.17R
MARIETTA       MOSUNNY   58  48  68 N6        30.20R
KENNESAW*      MOSUNNY   55  46  71 N6        30.21R
BLAIRSVILLE*     N/A     53  33  45 W3        30.23R
$$

GAZ059>098-102>109-221400-
CENTRAL GEORGIA

CITY           SKY/WX    TMP DP  RH WIND       PRES   REMARKS
AUGUSTA-BUSH   CLOUDY    67  50  54 NE9       30.13R
AUGUSTA-DANIEL PTSUNNY   65  49  56 NE9       30.15R
COLUMBUS       SUNNY     58  46  64 N9        30.19R
MACON          PTSUNNY   61  50  67 N8        30.16R
ROBINS AFB     PTSUNNY   61  50  66 N8        30.16R


CITY           SKY/WX    TMP DP  RH WIND       PRES   REMARKS
LAGRANGE*      SUNNY     60  53  79 N7        30.20R
SYLVANIA*      CLOUDY    67  58  71 N7        30.12R
MILLEDGEVILLE* PTSUNNY   63  55  77 CALM      30.17R
$$

GAZ099>101-110>166-221400-
SOUTH GEORGIA

CITY           SKY/WX    TMP DP  RH WIND       PRES   REMARKS
SAVANNAH       PTSUNNY   69  56  62 N6        30.10R
VALDOSTA       NOT AVBL
ALMA           SUNNY     66  52  60 N6        30.13R
FT STEWART     MOSUNNY   68  53  58 NW7       30.09R
ALBANY         MOSUNNY   64  49  57 N8        30.19R
HUNTER AFB     MOSUNNY   69  57  64 N6        30.07R
MOODY AFB      SUNNY     67  54  62 VRB6      30.13R
BRUNSWICK      SUNNY     72  57  60 NW7       30.11R


CITY           SKY/WX    TMP DP  RH WIND       PRES   REMARKS
BAINBRIDGE*    SUNNY     66  54  63 N12       30.17R
MOULTRIE*      MOSUNNY   64  50  59 N10G16    30.16R
VIDALIA*       SUNNY     64  52  63 N6        30.13R
WAYCROSS*      SUNNY     68  57  67 N9        30.13R
DOUGLAS*       SUNNY     68  52  56 N7        30.16R
$$



USA.gov is the U.S. government's official web portal to all federal, state and local government web resources and services.